This is the latest recevied weather packets stored in our database for station/object WY7EM. If no packets are shown the sender has not sent any weather packets the latest 10 day(s).
| Time | Temp. | Humidity | Pressure | Rain* | Wind** | Luminosity | Snow |
|---|---|---|---|---|---|---|---|
| 1778204054 | 23.89° C | 19% | 1013.1 hPa | 0 mm | - | 34 W/m² | - |
| 1778203752 | 23.89° C | 19% | 1013.2 hPa | 0 mm | - | 35 W/m² | - |
| 1778203449 | 23.89° C | 18% | 1013.2 hPa | 0 mm | - | 45 W/m² | - |
| 1778203146 | 24.44° C | 18% | 1013.3 hPa | 0 mm | - | 50 W/m² | - |
| 1778202844 | 24.44° C | 18% | 1013.5 hPa | 0 mm | - | 55 W/m² | - |
| 1778202541 | 24.44° C | 18% | 1013.5 hPa | 0 mm | - | 59 W/m² | - |
| 1778202238 | 24.44° C | 18% | 1013.5 hPa | 0 mm | - | 61 W/m² | - |
| 1778201935 | 25° C | 18% | 1013.1 hPa | 0 mm | - | 69 W/m² | - |
| 1778201632 | 25° C | 18% | 1013.3 hPa | 0 mm | - | 110 W/m² | - |
| 1778201328 | 25° C | 18% | 1013.3 hPa | 0 mm | - | 86 W/m² | - |
| 1778201025 | 25° C | 17% | 1013.2 hPa | 0 mm | - | 88 W/m² | - |
| 1778200721 | 25° C | 17% | 1013.1 hPa | 0 mm | - | 94 W/m² | - |
| 1778200418 | 25° C | 17% | 1013.1 hPa | 0 mm | - | 100 W/m² | - |
| 1778200116 | 25° C | 17% | 1013.2 hPa | 0 mm | - | 98 W/m² | - |
| 1778199812 | 25° C | 17% | 1013.5 hPa | 0 mm | - | 107 W/m² | - |
| 1778199508 | 25° C | 17% | 1013.2 hPa | 0 mm | - | 115 W/m² | - |
| 1778199204 | 25° C | 17% | 1013.3 hPa | 0 mm | - | 117 W/m² | - |
| 1778198901 | 25.56° C | 17% | 1013.2 hPa | 0 mm | - | 114 W/m² | - |
| 1778198597 | 25° C | 17% | 1013.3 hPa | 0 mm | - | 111 W/m² | - |
| 1778198294 | 25° C | 17% | 1013.5 hPa | 0 mm | - | 108 W/m² | - |
| 1778197992 | 25° C | 17% | 1013.7 hPa | 0 mm | - | 106 W/m² | - |
| 1778197689 | 25° C | 17% | 1013.5 hPa | 0 mm | - | 109 W/m² | - |
| 1778197385 | 25.56° C | 17% | 1013.7 hPa | 0 mm | - | 113 W/m² | - |
| 1778197081 | 25.56° C | 17% | 1013.7 hPa | 0 mm | - | 122 W/m² | - |
| 1778196779 | 25.56° C | 16% | 1013.7 hPa | 0 mm | - | 120 W/m² | - |
* Rain latest hour (hover to see other rain measurements)
** Current wind speed in m/s (hover to see current wind gust speed)